Regional Weather Roundup
Issued by NWS

Home | Current Version | Previous Version | Text Only | Print | Product List | Glossary On
Versions: 1 2 3 4 5 6 7 8 9 10 11 12 13 14 15 16 17 18 19 20 21 22 23 24 25 26 27 28 29 30 31 32 33 34 35 36 37 38 39 40 41 42 43 44 45 46 47 48 49 50
526
ASUS45 KSLC 131010
RWRUT

UTAH REGIONAL WEATHER ROUNDUP
NATIONAL WEATHER SERVICE SALT LAKE CITY UT
300 AM MST WED NOV 13 2019

UTZ001>011-023>025-131100-

NORTHERN UTAH

CITY           SKY/WX    TMP DP  RH WIND       PRES   REMARKS
BRIGHAM CITY   CLOUDY    38  29  69 CALM      30.15S
HILL AFB       MOCLDY    41  26  55 SE3       30.15R
LOGAN          CLOUDY    38  28  67 CALM      30.13R
OGDEN          CLOUDY    40  21  46 S7        30.14R
SALT LAKE CITY MOCLDY    40  28  62 E5        30.14S
TOOELE VALLEY  MOCLDY    37  27  65 CALM      30.14S
WENDOVER       CLEAR     32  20  61 CALM      30.15S
HEBER CITY     PTSUNNY   28  12  50 CALM      30.15R
WEST JORDAN    CLOUDY    37  29  72 CALM      30.14S

$$

UTZ011>015-024>027-131100-

CENTRAL/NORTHEAST UTAH

CITY           SKY/WX    TMP DP  RH WIND       PRES   REMARKS
PROVO AIRPORT  CLOUDY    36  25  64 E3        30.15S
MOAB/CANYONLAN CLEAR     30   8  39 CALM      30.14S
DELTA          CLEAR     30  18  59 CALM      30.14F
PRICE          CLEAR     30  13  49 NE8       30.15S WCI  22
RICHFIELD      CLEAR     27  16  63 CALM      30.15F
ROOSEVELT      MOCLDY    25  18  74 CALM      30.15S
DUCHESNE       SUNNY     25  10  54 NW8       30.12F WCI  16
VERNAL         PTCLDY    27  14  58 W5        30.13R WCI  22

$$

UTZ013>016-019>022-027-131100-

SOUTHERN UTAH

CITY           SKY/WX    TMP DP  RH WIND       PRES   REMARKS
BRYCE CANYON   CLEAR     24   9  52 NW3       30.23R
CEDAR CITY     CLEAR     30  12  47 S7        30.15F WCI  23
MILFORD        CLEAR     30  13  49 SW9       30.13F WCI  22
ST GEORGE      MOSUNNY   44  15  31 S3        30.12R
HANKSVILLE     CLEAR     27   0  31 NE3       30.18F
KANAB          CLEAR     30  10  43 CALM      30.19R
BLANDING         N/A     28  14  54 N8        30.25S WCI  20

$$

REGIONAL REPORTS     COLORADO/ARIZONA

CITY           SKY/WX    TMP DP  RH WIND       PRES   REMARKS
CRAIG, CO      CLOUDY    29  19  66 CALM      30.13R
GRAND JUNCTION PTCLDY    29   5  36 E6        30.16S WCI  23
RIFLE, CO      PTCLDY    22  11  62 CALM      30.20R
MONTROSE, CO   CLEAR     24  13  62 SE9       30.20F WCI  14
CORTEZ, CO     CLEAR     18   7  62 E6        30.19F WCI  10
COLORADO CITY    N/A     28  10  47 CALM      30.18R
PAGE, AZ       CLEAR     41  12  30 NW5       30.13S
GRAND CANYON   PTCLDY    23   6  48 E3        30.20F
KINGMAN, AZ    CLEAR     39  15  37 CALM      30.08F
FLAGSTAFF, AZ  CLEAR     26  19  74 CALM      30.20F

$$

REGIONAL REPORTS    NEVADA/IDAHO/WYOMING

CITY           SKY/WX    TMP DP  RH WIND       PRES   REMARKS
LAS VEGAS, NV  PTCLDY    54  20  26 W3        30.03S
ELY, NY        CLEAR     24   9  52 S13       30.20F WCI  12
ELKO, NV       CLEAR     30  19  63 CALM      30.17S
POCATELLO, ID  CLOUDY    41  19  41 SW14      30.13R
BURLEY, ID     MOCLDY    40  22  48 W8        30.12R WCI  34
EVANSTON, WY   MOCLDY    38  14  37 W18       30.13F WCI  28
ROCK SPRINGS,  PTCLDY    40  13  33 W22G35    30.07R WCI  30
KEMMERER, WY   CLOUDY    37  16  41 MISG      30.10S

$$




USA.gov is the U.S. government's official web portal to all federal, state and local government web resources and services.